Simultaneous Nadir Overpasses (SNOs) Predictions

Prediction of SNOs between AQUA and METOP-B Satellite Orbit:

Table of predicted SNOs for the next 14.0 days since TLE Epoch: 12/20/2015
Index Date (AQUA) Time (AQUA) Lat,Lon (AQUA) SZA (AQUA ) Date (METOP-B) Time (METOP-B) Lat,Lon (METOP-B) SZA (METOP-B ) Distance(km) Time Diff (sec)
1 12/21/2015 06:33:07 -73.78,-103.99 82.83 12/21/2015 06:32:26 -73.79,-103.94 82.81 2.01 41
2 12/21/2015 07:22:36 73.86, 63.46 97.27 12/21/2015 07:23:04 73.86, 63.57 97.26 3.60 28
3 12/24/2015 02:07:22 -73.75, -37.49 82.86 12/24/2015 02:06:47 -73.76, -37.60 82.84 3.73 35
4 12/24/2015 02:56:51 73.84, 129.95 97.24 12/24/2015 02:57:25 73.83, 129.90 97.23 1.91 34
5 12/26/2015 21:41:39 -73.79, 28.85 82.88 12/26/2015 21:41:08 -73.77, 28.84 82.89 2.01 31
6 12/26/2015 22:31:07 73.84,-163.61 97.18 12/26/2015 22:31:46 73.84,-163.66 97.18 1.66 39
7 12/29/2015 17:15:55 -73.81, 95.25 82.99 12/29/2015 17:15:29 -73.79, 95.27 83.00 2.61 26
8 12/29/2015 18:05:23 73.86, -97.22 97.07 12/29/2015 18:06:07 73.85, -97.24 97.06 0.99 44
9 01/01/2016 12:50:09 -73.79, 161.72 83.19 01/01/2016 12:49:49 -73.79, 161.69 83.18 1.10 20
10 01/01/2016 13:39:37 73.85, -30.76 96.87 01/01/2016 13:40:27 73.85, -30.82 96.88 2.22 50




NCC Satellite Simultaneous Nadir Overpasses (SNOs) Prediction Service
